Regional Weather Roundup
Issued by NWS

Home | Current Version | Previous Version | Graphics & Text | Print | Product List | Glossary Off
Versions: 1 2 3 4 5 6 7 8 9 10 11 12 13 14 15 16 17 18 19 20 21 22 23 24 25 26 27 28 29 30 31 32 33 34 35 36 37 38 39 40 41 42 43 44 45 46 47 48 49 50

000
ASUS43 KMKX 270400
RWRWI

WISCONSIN REGIONAL WEATHER ROUNDUP
NATIONAL WEATHER SERVICE MILWAUKEE/SULLIVAN WI
1100 PM CDT MON JUN 26 2017

NOTE: "FAIR" INDICATES FEW OR NO CLOUDS BELOW 12,000 FEET WITH NO
SIGNIFICANT WEATHER AND/OR OBSTRUCTIONS TO VISIBILITY.

WIZ001-002-006>008-014>016-023>028-270500-
NORTHWEST WISCONSIN

CITY           SKY/WX    TMP DP  RH WIND       PRES   REMARKS
SUPERIOR ARPT  NOT AVBL
ASHLAND        CLOUDY    54  49  83 SW7       30.04F
HAYWARD        CLOUDY    55  51  86 SE3       30.08S
SIREN          CLEAR     51  49  92 CALM      30.08S
CUMBERLAND     PTCLDY    50  50 100 SW3       30.09S
RICE LAKE      MOCLDY    53  52  95 CALM      30.10S
CHETEK         PTCLDY    50  50 100 CALM      30.09S FOG
LADYSMITH      MOCLDY    55  49  80 W6        30.09S
EAU CLAIRE     NOT AVBL
MENOMONIE      CLEAR     55  48  78 SW5       30.10S
NEW RICHMOND   CLEAR     54  48  82 CALM      30.11R
OSCEOLA        CLEAR     54  47  79 CALM      30.12S
$$

WIZ003>005-009-010-017-018-270500-
NORTH CENTRAL WISCONSIN

CITY           SKY/WX    TMP DP  RH WIND       PRES   REMARKS
MANITOWISH WTR CLEAR     47  47 100 CALM      30.04F
ARBOR VITAE    CLEAR     52  49  89 CALM      30.05S
WOODRUFF       CLEAR     52  49  89 CALM      30.05S
RHINELANDER    CLEAR     46  46 100 W3        30.06R
EAGLE RIVER    CLEAR     45  45 100 W3        30.04S
LAND O LAKES   CLEAR     45  44  97 CALM      30.05S FOG
PHILLIPS       PTCLDY    50  49  98 CALM      30.06S
TOMAHAWK       NOT AVBL
MEDFORD        CLEAR     50  47  87 W5        30.08R
MERRILL        CLEAR     47  46  97 CALM      30.07S
$$

WIZ029-030-035-036-043>047-270500-
CENTRAL WISCONSIN

CITY           SKY/WX    TMP DP  RH WIND       PRES   REMARKS
WAUSAU         CLEAR     52  47  83 CALM      30.06R
MOSINEE        CLEAR     52  46  82 W6        30.08R
MARSHFIELD     CLEAR     51  45  79 W6        30.07S
STEVENS POINT  PTCLDY    54  47  79 W5        30.07S
WAUPACA        CLEAR     55  48  80 CALM      30.07R
WAUTOMA        CLEAR     50  47  89 CALM      30.08S
WISC RAPIDS    CLEAR     51  47  86 CALM      30.09R
CAMP DOUGLAS   CLEAR     46  45  93 W5        30.09R
$$

WIZ011>013-019>022-031-037>040-048>050-270500-
NORTHEAST WISCONSIN

CITY           SKY/WX    TMP DP  RH WIND       PRES   REMARKS
ANTIGO         PTCLDY    51  47  87 NW6       30.06R
SHAWANO        PTCLDY    54  49  83 SW3       30.04S
OCONTO         CLEAR     49  49  99 CALM      30.03S
STURGEON BAY     N/A     51  50  96 S3          N/A
GREEN BAY      CLEAR     53  52  96 SW5       30.04S
MANITOWOC      NOT AVBL
APPLETON       PTCLDY    54  46  76 SW5       30.04S
CLINTONVILLE   PTCLDY    52  45  76 W3        30.05S
OSHKOSH        CLEAR     54  48  80 SW5       30.05F
$$

WIZ032>034-041-042-053>061-270500-
SOUTHWEST WISCONSIN

CITY           SKY/WX    TMP DP  RH WIND       PRES   REMARKS
LA CROSSE      CLEAR     58  50  75 NE3       30.11R
SPARTA         CLEAR     48  47  94 CALM      30.11S
VIROQUA        CLEAR     56  47  71 CALM      30.12R
BOSCOBEL       CLEAR     52  48  86 CALM      30.12R
PRAIRIE DU CHI CLEAR     54  47  76 CALM      30.12R
PLATTEVILLE    CLEAR     57  46  65 W3        30.12S
$$

WIZ056-057-062-063-064-067-068-270500-
SOUTH CENTRAL WISCONSIN

CITY           SKY/WX    TMP DP  RH WIND       PRES   REMARKS
REEDSBURG      CLEAR     54  50  85 CALM      30.10R
BARABOO/DELLS  CLEAR     51  47  89 CALM      30.10R
LONE ROCK      PTCLDY    54  50  86 CALM      30.10S
MINERAL POINT  MOCLDY    55  46  71 W3        30.11S
MADISON        MOCLDY    54  47  77 CALM      30.09R
MIDDLETON      PTCLDY    51  49  95 CALM      30.10S
WATERTOWN      NOT AVBL
MONROE         CLEAR     59  43  55 W3        30.11R
JANESVILLE     CLEAR     54  45  71 CALM      30.10R
$$

WIZ051-052-058>065-066-070>072-270500-
SOUTHEAST WISCONSIN

CITY           SKY/WX    TMP DP  RH WIND       PRES   REMARKS
MILWAUKEE      PTCLDY    59  49  69 NW6       30.08R
WAUKESHA       CLEAR     54  46  76 NW3       30.10
MILWAUKEE/TIMM CLEAR     54  45  71 NW3       30.08S
RACINE         CLEAR     57  46  66 NW3       30.09R
KENOSHA        CLEAR     52  46  80 W5        30.08R
FOND DU LAC    CLEAR     53  47  79 SW6       30.07S
SHEBOYGAN      CLEAR     49  49 100 S3        30.06S
WEST BEND      CLEAR     52  50  93 CALM      30.07S
JUNEAU         CLEAR     52  46  79 CALM      30.09S
$$

LSZ147-162-270500-
LAKE SUPERIOR

STATION/POSITION TIME  TEMP    WIND        PRES    WAVE
                       AIR SEA DIR/SP/G            HT/PER
                 (UTC) (F)     (DEG/KT/KT) (MB)    (FT/S)
W MID LAKE BUOY  0250   46 39  260/ 10/ 12 1015.9S   1/ 3
DEVILS ISLAND    0300   56     270/ 14/ 14 1016.8R
SAXON HARBOR     0340   56     200/  4/  7 1016.6S
$$

LMZ867-665-643>646-270500-
LAKE MICHIGAN

STATION/POSITION TIME  TEMP    WIND        PRES    WAVE
                       AIR SEA DIR/SP/G            HT/PER
                 (UTC) (F)     (DEG/KT/KT) (MB)    (FT/S)
CHAMBERS ISLAND  0340   54     220/  3/  6 1015.9S
S GREEN BAY BUOY 0330   60     250/  8/ 10 1016.6R
N MID LAKE BUOY  0250   57 56  260/  2/  4 1016.4R   1/ 3
NORTHPORT PIER   0340   56     260/  4/  5 1015.9S
KEWAUNEE LAKESHO 0330   53     290/  4/  5 1016.6S
SHEBOYGAN LAKESH 0300   56     280/  7/  8 1017.7R
PORT WASHINGTON  0330   57     300/  3/  6 1019.0S
ATWATER BUOY     0209   58 57  310/  8/ 10 1017.7R
MILWAUKEE LAKESH 0330   59     320/  7/  9   N/A
S MID LAKE BUOY  0250   59 61  340/ 17/ 21 1017.2R   2/ 4
KENOSHA   LAKESH 0300   61     330/ 10/ 13 1017.9
$$

TC  - TEMPERATURE IN CELSIUS
VSB - VISIBILITY IN STATUTE MILES
WCI - WIND CHILL INDEX
HX  - HEAT INDEX




USA.gov is the U.S. government's official web portal to all federal, state and local government web resources and services.